Location: Rounton
(54.4000°N, 1.3500°W)
Time: 13:31:09
(UTC+00:00)

Transit 2A Rocket - Pass Details

Date: 07 December 2021
Orbit: 584 x 918 km, 66.7° (Epoch: 21 January)

Event Time Altitude Azimuth Distance (km) Brightness Sun altitude
Rises 05:57:11 0° 170° (S) 3,356 8.6 -18.2°
Reaches altitude 10° 06:00:05 10° 155° (SSE) 2,479 8.2 -17.8°
Maximum altitude 06:04:21 22° 107° (ESE) 1,850 7.9 -17.2°
Drops below altitude 10° 06:08:48 10° 60° (ENE) 2,598 8.4 -16.6°
Sets 06:11:55 0° 46° (NE) 3,562 8.9 -16.1°
